[[{"header":{"parameterUnit":"m.s-1","parameterCategory":1,"la1":30.2991,"la2":30.254,"lo1":-89.0895,"lo2":-89.0444,"dx":0.0017,"dy":0.0017,"nx":28,"ny":28,"refTime":"2022-12-23T15:00:00:Z","depth":0,"parameterNumber":2,"parameterNumberName":"U-component_of_WINDS"},"data":[0,0,0,0,0,0,0,0,0,0,0,0,0,0,0,0,0,0,0,0,0,0,0,0,0,0,0,0,0,0,0,0,0,0,0,0,0,0,0,0,0,0,0,0,0,0,0,0,0,0,0,0,0,0,0,0,0,0,1.7067,1.7067,0,1.7056,1.7056,1.7056,1.7035,1.7034,1.7034,1.7033,1.7021,1.7021,1.7021,0,0,0,0,0,0,0,0,0,0,0,0,0,1.7069,1.7069,1.7067,1.7067,1.7067,1.7056,1.7056,1.7056,1.7035,1.7034,1.7034,1.7033,1.7021,1.7021,1.7021,0,0,0,0,0,0,0,0,0,0,0,0,0,1.7064,1.7069,1.7067,1.7055,1.7054,1.7056,1.7056,1.7056,1.7035,1.7034,1.7033,1.7033,1.7021,1.7021,1.7021,1.7034,0,0,1.7021,1.7021,0,0,0,0,0,0,0,0,1.7064,1.7064,1.7057,1.7056,1.7054,1.7046,1.7052,1.7048,1.7035,1.7042,1.7033,1.7033,1.703,1.7029,1.7028,1.7033,1.7033,1.7021,1.7021,1.7021,1.7021,0,0,0,0,0,0,0,1.7065,1.7064,1.7063,1.7057,1.7055,1.705,1.7048,1.7051,1.7039,1.7041,1.704,1.7039,1.7029,1.7028,1.7028,1.7032,1.7021,1.7021,1.7021,1.7021,1.7048,1.7049,0,0,0,0,0,0,1.7067,1.7065,1.7063,1.7062,1.7058,1.705,1.7049,1.7049,1.7039,1.7037,1.7039,1.7038,1.7028,1.7028,1.7027,1.7042,1.7021,1.7021,1.7021,1.7048,1.7049,1.7049,0,0,0,0,0,0,1.7067,1.7067,1.7063,1.7063,1.7062,1.7051,1.7052,1.7049,1.7049,1.7038,1.7035,1.7041,1.7028,1.7027,1.7033,1.7041,1.7021,1.7021,1.7047,1.7048,1.7049,1.7072,0,0,0,0,0,0,1.7067,1.7067,1.7072,1.7063,1.7062,1.7069,1.7052,1.705,1.7049,1.7047,1.7039,1.7037,1.7027,1.7033,1.7033,1.7041,1.7021,1.7046,1.7047,1.7049,1.707,1.7073,1.7076,0,0,0,0,0,1.7067,1.7078,1.7072,1.7072,1.7068,1.707,1.7069,1.7058,1.705,1.7055,1.7048,1.7037,1.7041,1.7033,1.7033,1.7042,1.7045,1.7047,1.7049,1.7069,1.7073,1.7076,0,0,0,0,0,0,1.7087,1.7077,1.707,1.7078,1.7075,1.7066,1.7072,1.7063,1.7061,1.706,1.7046,1.7044,1.7052,1.7047,1.704,1.7054,1.7041,1.7043,1.7057,1.706,1.7063,1.7064,1.7021,0,0,0,0,0,1.7093,1.7095,1.7086,1.7094,1.7093,1.7083,1.7083,1.7075,1.7071,1.7069,1.7063,1.7059,1.7059,1.706,1.7059,1.707,1.7068,1.7076,1.7079,1.7081,1.7082,1.7088,1.7092,1.7054,1.7054,1.7054,0,0,1.7103,1.7098,1.71,1.7098,1.7094,1.7097,1.7082,1.7085,1.7087,1.707,1.7075,1.707,1.7065,1.7073,1.7076,1.707,1.7093,1.7083,1.7085,1.7085,1.709,1.7094,1.7097,1.7055,1.7055,1.7055,0,0,1.7125,1.7121,1.7128,1.7125,1.7121,1.7114,1.7116,1.7109,1.7105,1.711,1.7098,1.71,1.7101,1.7098,1.7096,1.7119,1.7108,1.7119,1.7134,1.714,1.7143,1.7146,1.7154,1.7157,1.712,1.712,1.712,0,1.7139,1.7143,1.7133,1.7137,1.7137,1.7123,1.713,1.7127,1.7123,1.7123,1.7115,1.7117,1.7112,1.712,1.7126,1.7125,1.7127,1.7119,1.7144,1.7146,1.7148,1.7156,1.7159,1.7122,1.7121,1.7121,1.7121,0,1.7161,1.7164,1.717,1.7167,1.7167,1.7173,1.7163,1.7165,1.7158,1.7152,1.7158,1.7152,1.7151,1.7152,1.7145,1.7159,1.7155,1.7146,1.7133,1.7153,1.716,1.7163,1.7123,1.7123,1.7123,1.7122,0,0,1.7193,1.7185,1.7188,1.7186,1.7181,1.7183,1.7189,1.7188,1.719,1.7187,1.7192,1.7194,1.7185,1.7184,1.7176,1.7181,1.72,1.7172,1.7171,1.7177,1.7216,1.7223,1.7226,1.7194,1.7194,1.7195,1.7216,0,1.7213,1.7222,1.7214,1.7224,1.7227,1.7215,1.722,1.7217,1.7212,1.7214,1.7208,1.721,1.7199,1.7198,1.7203,1.7197,1.7208,1.7195,1.7197,1.7197,1.7199,1.723,1.7236,1.7257,1.7219,1.7219,1.722,0,1.7237,1.7237,1.7248,1.7243,1.7244,1.7249,1.7248,1.725,1.7247,1.7243,1.7242,1.7234,1.7239,1.7227,1.7233,1.7225,1.7226,1.7223,1.7224,1.7223,1.7209,1.723,1.7263,1.7266,1.7224,1.7223,1.7223,0,1.726,1.7262,1.7269,1.7269,1.7263,1.7267,1.7264,1.7261,1.7262,1.7261,1.7261,1.7261,1.7261,1.7261,1.7253,1.7245,1.7261,1.7248,1.7258,1.7258,1.7261,1.7261,1.7295,1.7262,1.7262,1.7262,1.7262,0,1.7282,1.729,1.728,1.7284,1.7292,1.7283,1.7291,1.7287,1.7285,1.7288,1.7277,1.7281,1.727,1.7272,1.7266,1.7273,1.7273,1.727,1.7268,1.727,1.7271,1.727,1.7268,1.7263,1.7263,1.7263,1.7263,0,1.7308,1.7302,1.7309,1.7304,1.7303,1.7309,1.7304,1.7308,1.7303,1.7308,1.7308,1.7301,1.7303,1.7295,1.7296,1.7292,1.7302,1.7298,1.7303,1.7302,1.7312,1.7311,1.7347,1.7351,1.7316,1.7316,1.7316,0,1.7323,1.7329,1.7325,1.7326,1.7325,1.7328,1.7329,1.7321,1.7322,1.732,1.7324,1.7326,1.7327,1.7331,1.7325,1.7326,1.7322,1.7334,1.7322,1.7325,1.7322,1.7322,1.7322,1.7337,1.7337,1.7337,1.7338,0,1.735,1.7347,1.7349,1.735,1.7352,1.7353,1.7352,1.7354,1.7345,1.7347,1.735,1.7351,1.7353,1.7355,1.7355,1.7352,1.7343,1.7342,1.7344,1.7347,1.735,1.7348,1.731,1.7341,1.7341,1.734,1.734,1.734,1.7371,1.7376,1.7374,1.7377,1.7376,1.7376,1.738,1.7376,1.7378,1.7379,1.7374,1.7378,1.7376,1.7375,1.7374,1.7377,1.7371,1.7374,1.7375,1.7376,1.7378,1.735,1.7377,1.7377,1.7377,1.7376,1.7376,0,1.7397,1.7396,1.7399,1.7399,1.7402,1.7395,1.7394,1.7396,1.74,1.7399,1.7401,1.7405,1.7407,1.7402,1.7403,1.7407,1.7403,1.7407,1.7407,1.7406,1.7383,1.7381,1.7411,1.7411,1.7411,1.7411,1.7411,1.7411,1.7411,1.7419,1.7416,1.7424,1.7422,1.7426,1.7427,1.7427,1.7426,1.7431,1.7433,1.743,1.7428,1.7429,1.7431,1.743,1.7431,1.7436,1.7434,1.7411,1.7408,1.7405,1.7403,1.7437,1.7437,1.7457,1.7457,1.7457]},{"header":{"parameterUnit":"m.s-1","parameterCategory":1,"la1":30.2991,"la2":30.254,"lo1":-89.0895,"lo2":-89.0444,"dx":0.0017,"dy":0.0017,"nx":28,"ny":28,"refTime":"2022-12-23T15:00:00:Z","depth":0,"parameterNumber":3,"parameterNumberName":"V-component_of_WINDS"},"data":[0,0,0,0,0,0,0,0,0,0,0,0,0,0,0,0,0,0,0,0,0,0,0,0,0,0,0,0,0,0,0,0,0,0,0,0,0,0,0,0,0,0,0,0,0,0,0,0,0,0,0,0,0,0,0,0,0,0,-4.8746,-4.8747,0,-4.8843,-4.8844,-4.8845,-4.884,-4.8838,-4.8837,-4.8836,-4.8931,-4.8934,-4.8938,0,0,0,0,0,0,0,0,0,0,0,0,0,-4.8552,-4.8555,-4.8746,-4.8747,-4.8748,-4.8843,-4.8844,-4.8846,-4.884,-4.8838,-4.8837,-4.8835,-4.8929,-4.8934,-4.8939,0,0,0,0,0,0,0,0,0,0,0,0,0,-4.8641,-4.8557,-4.8745,-4.8757,-4.8759,-4.8843,-4.8844,-4.8846,-4.884,-4.8838,-4.8836,-4.8834,-4.8928,-4.8934,-4.8939,-4.9017,0,0,-4.8957,-4.8959,0,0,0,0,0,0,0,0,-4.8636,-4.8648,-4.8754,-4.8756,-4.8759,-4.8827,-4.8811,-4.8903,-4.8841,-4.8809,-4.8836,-4.8833,-4.8898,-4.8906,-4.8928,-4.9021,-4.9025,-4.8957,-4.8961,-4.8963,-4.8965,0,0,0,0,0,0,0,-4.863,-4.8644,-4.8784,-4.8756,-4.8758,-4.8756,-4.8767,-4.8828,-4.8864,-4.8812,-4.8812,-4.8824,-4.8898,-4.8923,-4.8931,-4.9026,-4.8957,-4.8962,-4.8966,-4.8968,-4.9189,-4.9191,0,0,0,0,0,0,-4.8622,-4.8639,-4.8781,-4.8787,-4.8691,-4.8761,-4.8773,-4.8807,-4.8863,-4.887,-4.8825,-4.8823,-4.8914,-4.8924,-4.8934,-4.9029,-4.8963,-4.8969,-4.8972,-4.9186,-4.9189,-4.9192,0,0,0,0,0,0,-4.8618,-4.8635,-4.8777,-4.8713,-4.8731,-4.8767,-4.8805,-4.881,-4.8835,-4.8873,-4.8879,-4.8844,-4.8913,-4.8926,-4.8997,-4.9032,-4.8971,-4.8976,-4.9183,-4.9187,-4.9191,-4.922,0,0,0,0,0,0,-4.8612,-4.8633,-4.8663,-4.8714,-4.8735,-4.8839,-4.8808,-4.8814,-4.8845,-4.8843,-4.8893,-4.8899,-4.8912,-4.8988,-4.9002,-4.9039,-4.8981,-4.918,-4.9185,-4.9189,-4.9216,-4.9224,-4.9231,0,0,0,0,0,-4.8605,-4.8667,-4.8665,-4.8682,-4.8774,-4.8841,-4.8853,-4.8869,-4.8848,-4.8879,-4.8904,-4.8897,-4.9026,-4.8995,-4.9011,-4.9051,-4.9178,-4.9184,-4.9189,-4.9212,-4.9222,-4.9231,0,0,0,0,0,0,-4.8617,-4.8673,-4.8672,-4.8752,-4.8792,-4.884,-4.8879,-4.8879,-4.8924,-4.892,-4.8937,-4.8948,-4.9019,-4.9042,-4.9006,-4.9129,-4.9099,-4.9108,-4.9112,-4.9122,-4.9129,-4.9122,-4.8986,0,0,0,0,0,-4.863,-4.8681,-4.8727,-4.8793,-4.8813,-4.8843,-4.8873,-4.8882,-4.8924,-4.894,-4.897,-4.901,-4.9059,-4.9092,-4.9139,-4.9219,-4.923,-4.9254,-4.9262,-4.9268,-4.9275,-4.932,-4.9331,-4.921,-4.921,-4.921,0,0,-4.8655,-4.8692,-4.8723,-4.8796,-4.8828,-4.8881,-4.8857,-4.8913,-4.8952,-4.8948,-4.9018,-4.9041,-4.9086,-4.9163,-4.9197,-4.9183,-4.9311,-4.9275,-4.9279,-4.9283,-4.9327,-4.9338,-4.9348,-4.9213,-4.9213,-4.9212,0,0,-4.8728,-4.8761,-4.882,-4.8854,-4.8904,-4.8923,-4.8938,-4.8987,-4.9003,-4.9073,-4.9072,-4.9117,-4.9202,-4.9235,-4.9263,-4.9351,-4.9346,-4.9365,-4.9405,-4.9449,-4.9458,-4.9467,-4.9499,-4.951,-4.9373,-4.9373,-4.9373,0,-4.8752,-4.8833,-4.885,-4.8908,-4.894,-4.8941,-4.9001,-4.9032,-4.9094,-4.9116,-4.91,-4.9208,-4.9238,-4.9323,-4.9345,-4.9367,-4.9383,-4.936,-4.9456,-4.9464,-4.9473,-4.9503,-4.9515,-4.9375,-4.9375,-4.9374,-4.9374,0,-4.8861,-4.8917,-4.8958,-4.9021,-4.9058,-4.9116,-4.9142,-4.9177,-4.9183,-4.9204,-4.9276,-4.9313,-4.9369,-4.9389,-4.9395,-4.9475,-4.9465,-4.9452,-4.9423,-4.9486,-4.9515,-4.9527,-4.9378,-4.9377,-4.9376,-4.9376,0,0,-4.8943,-4.9017,-4.9032,-4.9061,-4.9117,-4.916,-4.9218,-4.9274,-4.9305,-4.9348,-4.9397,-4.947,-4.9459,-4.949,-4.95,-4.9538,-4.9606,-4.9521,-4.9522,-4.9536,-4.9697,-4.9707,-4.972,-4.9604,-4.9606,-4.9608,-4.9694,0,-4.9023,-4.9128,-4.9146,-4.9238,-4.929,-4.9292,-4.9343,-4.9383,-4.9404,-4.9451,-4.9474,-4.9526,-4.9507,-4.9526,-4.9564,-4.959,-4.9639,-4.9584,-4.9649,-4.9651,-4.9638,-4.9736,-4.9746,-4.9825,-4.9705,-4.9707,-4.9709,0,-4.9129,-4.9177,-4.9275,-4.9326,-4.9348,-4.9394,-4.9448,-4.9492,-4.9537,-4.955,-4.9587,-4.9592,-4.9652,-4.962,-4.9703,-4.9665,-4.9693,-4.971,-4.9713,-4.972,-4.9684,-4.9745,-4.9851,-4.9863,-4.9726,-4.9725,-4.9724,0,-4.918,-4.927,-4.934,-4.9365,-4.9425,-4.9457,-4.9484,-4.9527,-4.956,-4.9607,-4.9629,-4.9681,-4.971,-4.975,-4.9769,-4.9744,-4.9851,-4.982,-4.9863,-4.9863,-4.9885,-4.9884,-4.9997,-4.9903,-4.9903,-4.9902,-4.9902,0,-4.9267,-4.9327,-4.9364,-4.9407,-4.9475,-4.9495,-4.956,-4.9586,-4.9624,-4.9672,-4.9676,-4.9721,-4.9743,-4.9791,-4.9806,-4.9873,-4.9886,-4.9897,-4.9901,-4.9897,-4.9896,-4.9916,-4.9911,-4.9906,-4.9905,-4.9904,-4.9904,0,-4.9336,-4.9363,-4.944,-4.9492,-4.9507,-4.9554,-4.9598,-4.9639,-4.9661,-4.9722,-4.9737,-4.9771,-4.9828,-4.9851,-4.9919,-4.993,-5.0007,-5.0006,-4.9992,-4.9994,-5.0035,-5.0031,-5.0166,-5.0184,-5.0077,-5.0078,-5.0079,0,-4.9389,-4.9436,-4.9494,-4.9527,-4.9555,-4.9608,-4.9643,-4.9665,-4.97,-4.9756,-4.9791,-4.9848,-4.9895,-4.9985,-5.0015,-5.0068,-5.0068,-5.0112,-5.0076,-5.0072,-5.007,-5.0067,-5.0072,-5.0118,-5.0119,-5.012,-5.0121,0,-4.9482,-4.9494,-4.9545,-4.9601,-4.9643,-4.9688,-4.9731,-4.9758,-4.9786,-4.9826,-4.9885,-4.9922,-4.9993,-5.005,-5.0105,-5.0131,-5.0131,-5.0132,-5.0145,-5.0142,-5.0133,-5.0139,-5.0011,-5.0129,-5.0128,-5.0127,-5.0127,-5.0127,-4.9546,-4.9588,-4.9635,-4.9692,-4.9728,-4.9769,-4.9811,-4.984,-4.989,-4.9951,-4.996,-5.0024,-5.0068,-5.0142,-5.017,-5.022,-5.0208,-5.0226,-5.0231,-5.0236,-5.0239,-5.0125,-5.0229,-5.0229,-5.0229,-5.0229,-5.0229,0,-4.9639,-4.9671,-4.9723,-4.9785,-4.983,-4.9828,-4.9876,-4.9914,-4.997,-5.0012,-5.0059,-5.0127,-5.0182,-5.0218,-5.0273,-5.0306,-5.0307,-5.032,-5.0317,-5.0324,-5.0245,-5.0229,-5.0318,-5.0318,-5.0318,-5.0318,-5.0318,-5.0318,-4.9693,-4.9765,-4.9782,-4.9872,-4.9902,-4.9966,-4.9994,-5.0032,-5.0066,-5.0143,-5.0189,-5.0213,-5.0252,-5.0311,-5.0362,-5.037,-5.0391,-5.0404,-5.0412,-5.0338,-5.0329,-5.032,-5.0305,-5.0408,-5.0408,-5.0487,-5.0487,-5.0488]}]]